Погода в Дукмасове

Россия / Республика Адыгея     45°00′22″N   39°54′50″E
темп.,
°C
ветер,
м/с
пор.,
м/с
влажн.,
%
обл.,
%
осадки,
мм/ч
давл.,
гПа
погр.,
м
16 мая, вс
вс1600:00+18всв23935 0.1 101040
03:00+17всв229519 0.3 101012
06:00+18всв239711 0.3 1009107
09:00+23всв348449 0.3 1008523
12:00+27всв4568100 0.0 1006935
15:00+27всв5766100 0.0 10041066
18:00+25всв510788 0.0 1003367
21:00+20всв410890 0.0 1002189
17 мая, пн
пн1700:00+17юв22895 0.0 100218
03:00+17зсз359321 0.0 1003107
06:00+17зсз389552 0.1 1005250
09:00+20зюз3480100 0.3 1006510
12:00+22зюз3477100 0.4 1008864
15:00+20зсз3688100 2.4 1008331
18:00+20зюз1286100 0.9 1008121
21:00+16ююз4796100 7.9 1010202
18 мая, вт
вт1800:00+15зсз4996100 5.3 1010306
03:00+14з2996100 5.9 1010359
06:00+14зюз2695100 0.0 1012216
09:00+17зюз3585100 0.0 1011558
12:00+21з57647 0.0 10111463
15:00+22зсз68620 0.0 10111320
18:00+20зсз487429 0.1 1011445
21:00+17з1178100 0.1 101226
19 мая, ср
ср1900:00+16ююв118392 0.1 101116
03:00+15зюз3993100 1.3 1012411
06:00+14юз412952 1.7 1013554
09:00+17зюз811750 2.1 10141034
12:00+20зюз813570 0.0 10151946
15:00+21зюз812620 0.0 10151756
18:00+18зюз610690 0.0 1016641
21:00+13зсз39835 0.0 1017150
20 мая, чт
чт2000:00+11юз11842 0.0 101710
03:00+10в22847 0.0 101723
06:00+11в488772 0.0 1016163
09:00+18в610665 0.0 1014618
12:00+23в67655 0.0 10121024
15:00+25в68650 0.0 10101101
18:00+23в712753 0.0 1009565
21:00+20в7177759 0.0 1007416